Zurück zum Katalog

USA 40 R/B DEB

LostHEO
NORAD 23374·DEBRIS·🇺🇸 United States

Gestartet Aug 8, 1989 von Cape Canaveral Space Force Station

Loading…

Nächste Überflüge (nächste 24 Stunden)

TLE

VeraltetSource: Space-Track

Epoche: Feb 13, 2023, 01:43 UTC

1 23374U 89061AW  23044.07203788  .00021883  00000-0  22757-1 0  9997
2 23374  57.1011 181.6526 3094526 154.9494 224.0594  8.63896008 20185

Verfolge USA 40 R/B DEB in Echtzeit mit AllMySat

Download on the App Store